Location: Unspecified
(49.2170°N, 0.0000°E)
Time: 10:10:25
(UTC+00:00)

Transit 2A - Pass Details

Date: 17 June 2019
Orbit: 600 x 959 km, 66.7° (Epoch: 16 October)

Event Time Altitude Azimuth Distance (km) Brightness Sun altitude
Rises 08:32:00 0° 324° (NW) 3,547 9.1 41.9°
Reaches altitude 10° 08:34:54 10° 334° (NNW) 2,554 8.5 42.4°
Maximum altitude 08:40:10 32° 37° (NE) 1,390 8.0 43.2°
Drops below altitude 10° 08:44:59 10° 100° (E) 2,331 9.6 43.9°
Sets 08:47:31 0° 111° (ESE) 3,193 10.0 44.3°
